Kermit
Posts: 172
Joined: Mon Feb 04, 2019 10:47 am

Re: Questions and Data tracking

Tue Jun 01, 2021 1:10 pm

Date - Odometer - kWh - Full charge range
02/14/19 12464 16.33000 81
03/01/19 12700 16.26670 98
04/23/19 13316 16.20000 108
05/21/19 13692 16.03333 107
06/17/19 14008 16.03333 96
07/12/19 14291 16.29999 93
08/13/19 14827 16.56666 92
09/12/19 15279 16.56666 99
10/09/19 15771 16.73333 108
11/15/19 16293 16.36666 88* (After full preconditioning cycle)
12/09/19 16485 16.20000 97
01/08/20 16905 16.03000 92
02/09/20 17314 15.80000 86
03/04/20 17647 15.80000 96
08/09/20 18098 15.53000 92 (After several months of only partial charges)
10/12/20 18459 15.33000 91
10/31/20 18576 15.13000 86 (Tire pressure had dropped enough that all the tires needed topped off)
01/11/21 18840 14.94000 82
02/04/21 19031 14.47000 78
03/02/21 19208 14.50000 79
04/01/21 19545 14.60000 97
05/03/21 19937 14.47000 97
06/01/21 20322 14.67000 98
2016 Spark EV
2017 Volt

MrDRMorgan
Posts: 1167
Joined: Wed Oct 30, 2013 7:27 am
Location: Manteca in Central California

Re: Questions and Data tracking

Fri Jun 04, 2021 1:31 pm

Kermit wrote:
Tue Jun 01, 2021 1:10 pm
Date - Odometer - kWh - Full charge range
02/14/19 12464 16.33000 81
03/01/19 12700 16.26670 98
04/23/19 13316 16.20000 108
05/21/19 13692 16.03333 107
06/17/19 14008 16.03333 96
07/12/19 14291 16.29999 93
08/13/19 14827 16.56666 92
09/12/19 15279 16.56666 99
10/09/19 15771 16.73333 108
11/15/19 16293 16.36666 88* (After full preconditioning cycle)
12/09/19 16485 16.20000 97
01/08/20 16905 16.03000 92
02/09/20 17314 15.80000 86
03/04/20 17647 15.80000 96
08/09/20 18098 15.53000 92 (After several months of only partial charges)
10/12/20 18459 15.33000 91
10/31/20 18576 15.13000 86 (Tire pressure had dropped enough that all the tires needed topped off)
01/11/21 18840 14.94000 82
02/04/21 19031 14.47000 78
03/02/21 19208 14.50000 79
04/01/21 19545 14.60000 97
05/03/21 19937 14.47000 97
06/01/21 20322 14.67000 98
Current data for my 2016 Spark EV 2LT with DCFC
2 Jun 2021: 34711 miles, 13.8 kWh fully charged as measured by TorquePro.

RSC
Posts: 93
Joined: Thu Sep 20, 2018 5:45 am

Re: Questions and Data tracking

Thu Jul 01, 2021 2:19 pm

July 2021 readings:

Date - Odometer - Capacity - Range *
05/5/2019 18601 16.1
06/1/2019 18905 15.9
07/3/2019 19259 15.9
08/1/2019 19669 16.3
09/1/2019 19878 16.4
10/2/2019 20190 16.0
11/1/2019 20611 16.0
12/3/2019 20974 15.7
01/1/2020 21176 15.7
02/1/2020 21460 15.4
03/1/2020 21692 15.2
04/1/2020 21951 15.2
05/1/2020 22026 15.2
06/1/2020 22121 15.2
07/1/2020 22248 15.2
08/1/2020 22420 15.2
09/1/2020 22598 15.2
10/3/2020 22828 15.2
11/1/2020 23021 15.2
11/18/2020 23129 13.6 58
12/1/2020 23206 13.6 60
1/1/2021 23299 13.6 56
2/1/2021 23446 13.6 55
2/3/2021 23488 14.0 59
3/1/2021 23616 14.2 58
4/1/2021 23745 14.2 54
5/1/2021 24107 14.4 68
6/1/2021 24332 14.3 67
7/1/2021 24586 14.3 64

* Distances in miles. Capacity in kWh. Range is on a full charge.

GOM range is down a bit. I've been using the A/C a lot over the last month, and my drives have been almost all downhill from a full charge (no regen), then back uphill. The range is perfectly adequate for almost all of my driving, but I would really like to have the Bolt's Hilltop Reserve option.
Ray
2015 Spark EV 1LT, DCFC

Kermit
Posts: 172
Joined: Mon Feb 04, 2019 10:47 am

Re: Questions and Data tracking

Thu Jul 15, 2021 10:31 am

Date - Odometer - kWh - Full charge range
02/14/19 12464 16.33000 81
03/01/19 12700 16.26670 98
04/23/19 13316 16.20000 108
05/21/19 13692 16.03333 107
06/17/19 14008 16.03333 96
07/12/19 14291 16.29999 93
08/13/19 14827 16.56666 92
09/12/19 15279 16.56666 99
10/09/19 15771 16.73333 108
11/15/19 16293 16.36666 88* (After full preconditioning cycle)
12/09/19 16485 16.20000 97
01/08/20 16905 16.03000 92
02/09/20 17314 15.80000 86
03/04/20 17647 15.80000 96
08/09/20 18098 15.53000 92 (After several months of only partial charges)
10/12/20 18459 15.33000 91
10/31/20 18576 15.13000 86 (Tire pressure had dropped enough that all the tires needed topped off)
01/11/21 18840 14.94000 82
02/04/21 19031 14.47000 78
03/02/21 19208 14.50000 79
04/01/21 19545 14.60000 97
05/03/21 19937 14.47000 97
06/01/21 20322 14.67000 98
07/15/21 20756 14.57000 98
2016 Spark EV
2017 Volt

Return to “General / Main Owners Forum”